AirNav   Air Wisconsin Up To $57,000 Bonus
 
 1237 users online  

KLNC Lancaster Regional Airport
Lancaster, Texas, USA

GOING TO LANCASTER?


FAA INFORMATION EFFECTIVE 15 JULY 2021

Location

FAA Identifier: LNC
Lat/Long: 32-34-39.3750N 096-43-03.0100W
32-34.656250N 096-43.050167W
32.5776042,-96.7175028
(estimated)
Elevation: 501.1 ft. / 152.7 m (surveyed)
Variation: 06E (1990)
From city: 2 miles S of LANCASTER, TX
Time zone: UTC -5 (UTC -6 during Standard Time)
Zip code: 75146

Airport Operations

Airport use: Open to the public
Activation date: 08/1968
Control tower: no
ARTCC: FORT WORTH CENTER
FSS: FORT WORTH FLIGHT SERVICE STATION
NOTAMs facility: LNC (NOTAM-D service available)
Attendance: 0700-1900
ARPT CLSD THANKSGIVING, CHRISTMAS EVE 1800Z THRU CHRISTMAS.
Wind indicator: lighted
Segmented circle: yes
Lights: ACTVT MIRL RY 13/31 - CTAF.
Beacon: white-green (lighted land airport)
Operates sunset to sunrise.

Airport Communications

CTAF/UNICOM: 122.7
WX AWOS-3: 118.975 (972-227-0471)
REGIONAL APPROACH: 125.2 [1300-0500Z++ MON-THU; 1300-2200Z++ FRI; CLSD SAT, SUN AND HOL BY NOTAM. HRS SUBJECT TO CHG IN SUPPORT OF TRAWING-2 FLT OPR]
REGIONAL DEPARTURE: 125.2 [1300-0500Z++ MON-THU; 1300-2200Z++ FRI; CLSD SAT, SUN AND HOL BY NOTAM. HRS SUBJECT TO CHG IN SUPPORT OF TRAWING-2 FLT OPR]
DODJE STAR: 125.2 125.9
FINGR STAR: 124.3 125.275
GREGS STAR: 118.1
JFRYE STAR: 118.1
JOE POOL DP: 125.2
KNEAD STAR: 135.975
REEKO STAR: 125.2
SLANT STAR: 125.275
SWVAY STAR: 135.975
YEAGR STAR: 125.025 125.275
WX ASOS at RBD (10 nm NW): PHONE 214-330-5317
WX AWOS-3 at JWY (12 nm SW): 119.575 (972-937-4747)
WX AWOS-3 at 49T (12 nm N): 135.425 (214-670-1243)
WX AWOS-3 at HQZ (14 nm NE): 118.175 (972-222-7631)
WX ASOS at DAL (17 nm NW): PHONE 214-353-1551
WX AWOS-3P at GPM (18 nm NW): 118.475 (972-606-1433)
WX ASOS at GKY (20 nm W): 127.375 (817-557-0251)

Nearby radio navigation aids

VOR radial/distance  VOR name  Freq  Var
CVEr147/21.0COWBOY VOR/DME116.2006E
TTTr131/23.9MAVERICK VOR/DME113.1006E
FUZr123/29.9RANGER VORTAC115.7006E
CQYr307/34.5CEDAR CREEK VORTAC114.8006E

 
NDB name  Hdg/Dist  Freq  Var  ID
MESQUITE211/16.824803EPQF .--. --.- ..-.
TRAVIS239/26.126006EAVZ .- ...- --..
POWELL328/34.234406ECGQ -.-. --. --.-
CORSICANA328/36.839606ECRS -.-. .-. ...

Airport Services

Fuel available: 100LL JET-A+
Parking: hangars and tiedowns
Airframe service: MAJOR
Powerplant service: MAJOR
Bottled oxygen: NONE
Bulk oxygen: NONE

Runway Information

Runway 13/31

Dimensions: 6500 x 100 ft. / 1981 x 30 m
Surface: asphalt, in good condition
Weight bearing capacity: 
Single wheel: 20.0
Double wheel: 60.0
Runway edge lights: medium intensity
RUNWAY 13  RUNWAY 31
Latitude: 32-35.068833N32-34.244000N
Longitude: 096-43.454500W096-42.646000W
Elevation: 501.1 ft.475.3 ft.
Traffic pattern: leftright
Runway heading: 134 magnetic, 140 true314 magnetic, 320 true
Markings: precision, in good conditionprecision, in good condition
Visual slope indicator: 4-light PAPI on left (3.00 degrees glide path)4-light PAPI on left (3.00 degrees glide path)
Runway end identifier lights: noyes
Touchdown point: yes, no lightsyes, no lights

Airport Ownership and Management from official FAA records

Ownership: Publicly-owned
Owner: CITY OF LANCASTER
PO BOX 940
LANCASTER, TX 75146
Phone 972-218-1274
Manager: KELLEN BENBROOK
730 FERRIS ROAD STE 102
LANCASTER, TX 75146
Phone 972-227-5721
ADDNTL CTC: 972-218-1273.

Airport Operational Statistics

Aircraft based on the field: 78
Single engine airplanes: 61
Multi engine airplanes: 10
Jet airplanes: 2
Helicopters: 4
Gliders airplanes: 1
    
Aircraft operations: avg 184/day *
58% local general aviation
42% transient general aviation
<1% military
* for 12-month period ending 31 December 2015

Additional Remarks

FULL ON AUTO-ROTATIONS, SLIDING SKID LDG OR TKOFS BY SKID TYPE HELS ON ANY PAVED SFC NOT AUTH.
BIRDS, COYOTES & WILD HOGS ON & INVOF ARPT.
ALTN CD IF GCO INOP: FTW TRACON: 972-615-2799 (PRIMARY), 972-615-2568 (SECONDARY).
GCO 121.725 (DALLAS/FORT WORTH TRACON ).
N RAMP HEL PRKG CIRCLES ROTARY WING USE ONLY, APCH AND DEP NOT AUTH.
UNLGTD HIGH TENSION PWR LINES X 1 NM SOUTH OF RWY 31 EXTDED RCL.
FOR CD CTC REGIONAL APCH AT 972-615-2799.

Instrument Procedures

NOTE: All procedures below are presented as PDF files. If you need a reader for these files, you should download the free Adobe Reader.

NOT FOR NAVIGATION. Please procure official charts for flight.
FAA instrument procedures published for use from 15 July 2021 at 0901Z to 12 August 2021 at 0900z.

 
STARs - Standard Terminal Arrivals
DODJE SIX   2 pages: [1] [2] (766KB)
FINGR SEVEN   2 pages: [1] [2] (501KB)
GREGS NINE   2 pages: [1] [2] (588KB)
HERBZ ONE (RNAV) **NEW**   download (296KB)
JFRYE FOUR (RNAV) **NEW**   download (281KB)
REEKO THREE (RNAV)   download (214KB)
SLANT THREE (RNAV)   download (250KB)
SWVAY FOUR (RNAV) **CHANGED**   download (246KB)
 
IAPs - Instrument Approach Procedures
RNAV (GPS) RWY 31   download (227KB)
NOTE: Special Alternate Minimums apply   download (48KB)
 
Departure Procedures
DALLAS EIGHT **NEW**   2 pages: [1] [2] (377KB)
GARLAND ONE **NEW**   2 pages: [1] [2] (365KB)
JOE POOL THREE **NEW**   2 pages: [1] [2] (566KB)
KINGDOM NINE **NEW**   2 pages: [1] [2] (395KB)
KUSSO EIGHT (RNAV) **NEW**   2 pages: [1] [2] (347KB)
SWABR EIGHT (RNAV) **NEW**   2 pages: [1] [2] (345KB)
TEXOMA ONE **NEW**   2 pages: [1] [2] (484KB)
WORTH SIX **NEW**   2 pages: [1] [2] (439KB)
NOTE: Special Take-Off Minimums/Departure Procedures apply   download

Other nearby airports with instrument procedures:

KRBD - Dallas Executive Airport (10 nm NW)
KJWY - Mid-Way Regional Airport (12 nm SW)
KHQZ - Mesquite Metro Airport (14 nm NE)
F41 - Ennis Municipal Airport (15 nm S)
KDAL - Dallas Love Field Airport (17 nm NW)
KGPM - Grand Prairie Municipal Airport (18 nm NW)
KGKY - Arlington Municipal Airport (20 nm W)
 
Loc | Ops | Rwys | IFR | FBO | Links
Com | Nav | Svcs | Stats | Notes

City of Fort Worth
 
Area around KLNC (Lancaster Regional Airport)
 
Road maps at: MapQuest Bing Google
 
Aerial photo
WARNING: Photo may not be current or correct
Aerial photo of KLNC (Lancaster Regional Airport)
Taken in November 2015
looking east.

Do you have a better or more recent aerial photo of Lancaster Regional Airport that you would like to share? If so, please send us your photo.

 
Sectional chart

 
Airport diagram
CAUTION: Diagram may not be current
Diagram of KLNC (Lancaster Regional Airport)
 
Airport distance calculator
Flying to Lancaster Regional Airport? Find the distance to fly.

From to KLNC

Sunrise and sunset
Times for 31-Jul-2021
 Local
(UTC-5)
 Zulu
(UTC)
Morning civil twilight06:1411:14
Sunrise06:4111:41
Sunset20:2501:25
Evening civil twilight20:5201:52

Current date and time
Zulu (UTC)  31-Jul-2021 18:57:51
Local (UTC-5)  31-Jul-2021 13:57:51
 
METAR
KLNC 311835Z AUTO 13004KT 10SM SCT050 SCT065 34/22 A3005 RMK AO2 T03440215
KRBD 
10nm NW 
311853Z VRB05KT 10SM SCT060 36/21 A3003 RMK AO2 SLP158 T03610206
KJWY 
12nm SW 
311835Z AUTO 20008KT 10SM SCT110 36/22 A3005 RMK AO2 T03550217
KHQZ 
14nm NE 
311850Z 11008KT 10SM SCT038 34/23 A3004
KDAL 
18nm N 
311853Z VRB03KT 10SM FEW045 SCT060 36/22 A3002 RMK AO2 SLP157 MDT CU SW NW T03610217
KGPM 
18nm NW 
311750Z 00000KT 10SM SCT045 SCT065 34/20 A3006
TAF
KDAL 
18nm N 
311721Z 3118/0118 19008KT P6SM SCT060 SCT250 FM011500 25006KT P6SM VCSH SCT060 BKN250
KGKY 
20nm W 
311721Z 3118/0118 19008KT P6SM SCT060 SCT250 FM011500 25006KT P6SM VCSH SCT060 BKN250
NOTAMs
Click for the latest NOTAMs
NOTAMs are issued by the DoD/FAA and will open in a separate window not controlled by AirNav.

 

 
 

FBO, Fuel Providers, and Aircraft Ground Support

  
 Business Name 
 
 Contact 
 
 Services / Description 
 
Fuel Prices
 
Comments
  
Lancaster Regional Airport UNICOM 122.70
972-227-5721
[web site]
[email]
We provide: Aviation fuel, Aircraft parking (ramp or hangars), NO RAMP FEES (under 30 days stay), GPU, Aircraft towing, Passenger terminal and lounge, After hours call-outs on request.
More info and photos of Lancaster Regional Airport
 
AirBoss™ fuel program   Titan Contract Fuel   Titan Rewards   Courtesy car   Enterprise Rent-A-Car   Hertz   Wireless Internet Access (WiFi)  
 
Titan
100LL Jet A
FS $4.45 $3.75 
SS $3.95 $3.55 
GUARANTEED
AirBossMEMBERS
ONLY
Discounts
LoginJoin
 
   write
FS=Full service
SS=Self service
Update Fuel Prices
 

Would you like to see your business listed on this page?

 If your business provides an interesting product or service to pilots, flight crews, aircraft, or users of the Lancaster Regional Airport, you should consider listing it here.  To start the listing process, click on the button below
 
Add a business
 

Other Pages about Lancaster Regional Airport

www.lancasterregionalairport.com
 
Update a link
 
Copyright © AirNav, LLC. All rights reserved. Privacy Policy  Contact